Back to catalog

STARLINK-34442

AliveCommunicationsVLEO
NORAD 64672·PAYLOAD·🇺🇸 United States

Launched Jun 28, 2025 from Cape Canaveral Space Force Station

Loading…

Next Passes (next 24 hours)

TLE

FreshSource: CelesTrak SupGP

Epoch: Sep 14, 2026, 23:03 UTC

1 64672C 25139J   26257.96090278  .00029138  00000+0  86052-3 0  2571
2 64672  53.1587 323.5271 0001452 107.6379 265.0521 15.34389415    19

Track STARLINK-34442 in real time with AllMySat

Download on the App Store